Oelwein, IA

10:17 AM CDT on June 27, 2017 (GMT -0500)
Oelwein Municipal

Weather History for KOLZ - November, 2013

Change the Weather History Date:

Friday, November 1, 2013

  Actual Average Record
Temperature  
Mean Temperature 44 °F -  
Max Temperature 51 °F 53 °F 75 °F (1950)
Min Temperature 37 °F 36 °F 15 °F (2006)
Degree Days  
Heating Degree Days 21    
Moisture  
Dew Point 37 °F    
Average Humidity 81    
Maximum Humidity 93    
Minimum Humidity 54    
Precipitation  
Precipitation 0.00 in - - ()
Sea Level Pressure  
Sea Level Pressure 29.65 in    
Wind  
Wind Speed 10 mph (WNW)    
Max Wind Speed 16 mph    
Max Gust Speed 22 mph    
Visibility 10 miles    
Events      
Averages and records for this station are not official NWS values.
T = Trace of Precipitation, MM = Missing Value Source: NWS Daily Summary

Daily Weather History Graph

Daily Weather History Graph

Search for Another Location

Airport or City:

Trip Planner

Search our weather history database for the weather conditions in past years. The results will help you decide how hot, cold, wet, or windy it might be!

Date:

Astronomy

Nov. 01, 2013 Rise Set
Actual Time 7:42 AM CDT 6:00 PM CDT
Civil Twilight 7:12 AM CDT 6:29 PM CDT
Nautical Twilight 6:39 AM CDT 7:02 PM CDT
Astronomical Twilight 6:06 AM CDT 7:35 PM CDT
Moon 5:32 AM CDT (11/1) 4:55 PM CDT (11/1)
Length of Visible Light 11h 16m
Length of Day
10h 18m
Waning Crescent, 4% of the Moon is Illuminated
Nov 1
Waning Crescent
Nov 3
New
Nov 9
First Quarter
Nov 17
Full
Nov 25
Last Quarter

Hourly Weather History & Observations

Time (CDT) Temp. Windchill Dew Point Humidity Pressure Visibility Wind Dir Wind Speed Gust Speed Precip Events Conditions
12:15 AM 41.0 °F 35.2 °F 37.4 °F 87% 29.45 in 10.0 mi West 9.2 mph - N/A   Overcast
1:15 AM 41.0 °F 34.7 °F 37.4 °F 87% 29.46 in 10.0 mi West 10.4 mph - N/A   Overcast
4:15 AM 41.0 °F 34.3 °F 37.4 °F 87% 29.49 in 10.0 mi WNW 11.5 mph - N/A   Overcast
4:35 AM 41.0 °F 34.3 °F 39.2 °F 93% 29.50 in 10.0 mi West 11.5 mph 17.3 mph N/A   Overcast
4:55 AM 41.0 °F 33.5 °F 37.4 °F 87% 29.50 in 10.0 mi West 13.8 mph - N/A   Overcast
5:15 AM 41.0 °F 34.7 °F 37.4 °F 87% 29.51 in 10.0 mi West 10.4 mph 19.6 mph N/A   Overcast
5:35 AM 41.0 °F 34.3 °F 37.4 °F 87% 29.52 in 10.0 mi West 11.5 mph - N/A   Overcast
5:55 AM 41.0 °F 35.2 °F 37.4 °F 87% 29.53 in - WNW 9.2 mph 16.1 mph N/A   Overcast
6:15 AM 41.0 °F 34.7 °F 39.2 °F 93% 29.54 in 10.0 mi West 10.4 mph 16.1 mph N/A   Overcast
6:35 AM 41.0 °F 33.9 °F 39.2 °F 93% 29.55 in 10.0 mi WNW 12.7 mph - N/A   Overcast
6:55 AM 41.0 °F 34.3 °F 39.2 °F 93% 29.55 in 10.0 mi WNW 11.5 mph - N/A   Overcast
7:15 AM 41.0 °F 35.2 °F 39.2 °F 93% 29.56 in 10.0 mi West 9.2 mph 15.0 mph N/A   Overcast
7:35 AM 41.0 °F 34.7 °F 39.2 °F 93% 29.56 in 10.0 mi WNW 10.4 mph - N/A   Overcast
7:55 AM 41.0 °F 35.8 °F 39.2 °F 93% 29.57 in 10.0 mi West 8.1 mph - N/A   Overcast
8:15 AM 41.0 °F 34.7 °F 39.2 °F 93% 29.58 in 10.0 mi WNW 10.4 mph - N/A   Overcast
8:35 AM 41.0 °F 35.8 °F 39.2 °F 93% 29.58 in 10.0 mi NW 8.1 mph - N/A   Overcast
8:55 AM 42.8 °F 37.5 °F 39.2 °F 87% 29.59 in 10.0 mi NW 9.2 mph - N/A   Overcast
9:15 AM 42.8 °F 38.0 °F 39.2 °F 87% 29.60 in 10.0 mi NW 8.1 mph 15.0 mph N/A   Overcast
9:35 AM 42.8 °F 36.6 °F 39.2 °F 87% 29.61 in 10.0 mi NW 11.5 mph - N/A   Overcast
9:55 AM 42.8 °F 37.0 °F 39.2 °F 87% 29.61 in 10.0 mi NW 10.4 mph - N/A   Overcast
10:15 AM 44.6 °F 39.2 °F 39.2 °F 81% 29.62 in 10.0 mi WNW 10.4 mph - N/A   Overcast
10:35 AM 44.6 °F 39.2 °F 39.2 °F 81% 29.62 in 10.0 mi WNW 10.4 mph 16.1 mph N/A   Mostly Cloudy
10:55 AM 46.4 °F 41.1 °F 39.2 °F 76% 29.63 in 10.0 mi WNW 11.5 mph - N/A   Scattered Clouds
11:15 AM 46.4 °F 41.1 °F 39.2 °F 76% 29.63 in 10.0 mi WNW 11.5 mph - N/A   Scattered Clouds
11:35 AM 44.6 °F 38.8 °F 37.4 °F 76% 29.63 in 10.0 mi West 11.5 mph 17.3 mph N/A   Mostly Cloudy
11:55 AM 46.4 °F 40.7 °F 39.2 °F 76% 29.64 in 10.0 mi West 12.7 mph - N/A   Mostly Cloudy
12:15 PM 46.4 °F 40.1 °F 39.2 °F 76% 29.64 in 10.0 mi West 15.0 mph - N/A   Scattered Clouds
12:35 PM 46.4 °F 39.8 °F 39.2 °F 76% 29.65 in 10.0 mi West 16.1 mph - N/A   Mostly Cloudy
12:55 PM 46.4 °F 40.4 °F 39.2 °F 76% 29.65 in 10.0 mi West 13.8 mph 20.7 mph N/A   Mostly Cloudy
1:15 PM 46.4 °F 40.1 °F 39.2 °F 76% 29.65 in 10.0 mi WNW 15.0 mph - N/A   Overcast
1:35 PM 48.2 °F - 39.2 °F 71% 29.65 in 10.0 mi WNW 13.8 mph 21.9 mph N/A   Overcast
1:55 PM 48.2 °F - 39.2 °F 71% 29.65 in 10.0 mi West 15.0 mph - N/A   Overcast
2:15 PM 50.0 °F - 37.4 °F 62% 29.65 in 10.0 mi West 13.8 mph - N/A   Mostly Cloudy
2:35 PM 50.0 °F - 37.4 °F 62% 29.66 in 10.0 mi WNW 11.5 mph 19.6 mph N/A   Mostly Cloudy
2:55 PM 50.0 °F - 35.6 °F 58% 29.66 in 10.0 mi WNW 15.0 mph 20.7 mph N/A   Mostly Cloudy
3:15 PM 50.0 °F - 35.6 °F 58% 29.66 in 10.0 mi WNW 15.0 mph 21.9 mph N/A   Scattered Clouds
4:55 PM 51.8 °F - 35.6 °F 54% 29.70 in 10.0 mi NW 10.4 mph - N/A   Mostly Cloudy
5:15 PM 50.0 °F - 35.6 °F 58% 29.70 in 10.0 mi WNW 8.1 mph 18.4 mph N/A   Mostly Cloudy
5:35 PM 48.2 °F - 35.6 °F 62% 29.71 in 10.0 mi WNW 6.9 mph - N/A   Mostly Cloudy
5:55 PM 46.4 °F 42.9 °F 35.6 °F 66% 29.71 in 10.0 mi West 6.9 mph - N/A   Partly Cloudy
6:15 PM 44.6 °F 41.4 °F 35.6 °F 71% 29.71 in 10.0 mi West 5.8 mph - N/A   Clear
6:35 PM 42.8 °F 40.1 °F 35.6 °F 76% 29.72 in 10.0 mi WNW 4.6 mph - N/A   Partly Cloudy
6:55 PM 42.8 °F - 33.8 °F 70% 29.72 in 10.0 mi Calm Calm - N/A   Partly Cloudy
7:15 PM 41.0 °F 37.1 °F 33.8 °F 76% 29.73 in 10.0 mi West 5.8 mph - N/A   Partly Cloudy
7:35 PM 41.0 °F 37.1 °F 33.8 °F 76% 29.74 in 10.0 mi West 5.8 mph - N/A   Partly Cloudy
7:55 PM 39.2 °F 34.2 °F 33.8 °F 81% 29.74 in 10.0 mi West 6.9 mph - N/A   Clear
8:15 PM 39.2 °F 34.2 °F 33.8 °F 81% 29.75 in 10.0 mi West 6.9 mph - N/A   Clear
8:35 PM 37.4 °F 33.8 °F 33.8 °F 87% 29.75 in 10.0 mi WNW 4.6 mph - N/A   Partly Cloudy
8:55 PM 39.2 °F 35.0 °F 33.8 °F 81% 29.76 in 10.0 mi WNW 5.8 mph - N/A   Clear
9:15 PM 39.2 °F 33.6 °F 33.8 °F 81% 29.76 in 10.0 mi WNW 8.1 mph - N/A   Clear
9:35 PM 39.2 °F 34.2 °F 33.8 °F 81% 29.77 in 10.0 mi WNW 6.9 mph - N/A   Clear
9:55 PM 39.2 °F 34.2 °F 35.6 °F 87% 29.78 in 10.0 mi WNW 6.9 mph - N/A   Mostly Cloudy
10:15 PM 39.2 °F 34.2 °F 35.6 °F 87% 29.78 in 10.0 mi WNW 6.9 mph - N/A   Scattered Clouds
10:35 PM 39.2 °F 34.2 °F 35.6 °F 87% 29.79 in 10.0 mi WNW 6.9 mph - N/A   Clear
10:55 PM 39.2 °F 34.2 °F 35.6 °F 87% 29.79 in 10.0 mi WNW 6.9 mph - N/A   Clear
11:15 PM 37.4 °F 32.1 °F 35.6 °F 93% 29.80 in 10.0 mi WNW 6.9 mph - N/A   Clear
11:35 PM 37.4 °F 31.4 °F 35.6 °F 93% 29.80 in 10.0 mi WNW 8.1 mph - N/A   Clear
11:55 PM 37.4 °F 31.4 °F 35.6 °F 93% 29.80 in 10.0 mi WNW 8.1 mph - N/A   Clear